カタログに戻る

CZ-4 DEB

運用中SSO
NORAD 32473·DEBRIS·🇨🇳 China

打ち上げ Sep 19, 2007 から Taiyuan Satellite Launch Center

Loading…

次のパス (今後24時間)

TLE

最新Source: Space-Track

元期: Sep 13, 2026, 23:20 UTC

1 32473U 07042C   26256.97247008  .00002385  00000-0  44564-3 0  9994
2 32473  97.9584 262.1025 0085343 313.2533  46.1568 14.63512364991705

AllMySatでCZ-4 DEBをリアルタイム追跡

Download on the App Store